QLK1912 YSCB-YBBN

Flight info

Callsign QLK1912
Flight time 1h 31m
Altitude 38000
Route AVBEG3/35 AVBEG W184 MUDGI/N0457F370 H66 LAGOB H252 BN
Aircraft E190/M-SDE3GILORVW/S

Departure

Time 2026-05-04 09:05
Airport Canberra Airport (YSCB)

Arrival

Time 2026-05-04 10:36
Airport Brisbane International Airport (YBBN)
Time Latitude Longitude Altitude Speed Heading
2026-05-04 08:33 -35.30657 149.19057 1877 ft 0 kts 219°
2026-05-04 08:54 -35.30637 149.19094 1878 ft 4 kts 243°
2026-05-04 08:55 -35.30626 149.19118 1880 ft 4 kts 202°
2026-05-04 08:55 -35.30605 149.19115 1878 ft 4 kts 139°
2026-05-04 08:55 -35.30587 149.19091 1878 ft 4 kts 128°
2026-05-04 08:55 -35.30572 149.19068 1879 ft 2 kts 129°
2026-05-04 08:57 -35.30571 149.19067 1879 ft 0 kts 129°
2026-05-04 09:01 -35.31394 149.19446 1873 ft 32 kts 181°
2026-05-04 09:01 -35.31627 149.19450 1874 ft 36 kts 180°
2026-05-04 09:01 -35.31865 149.19447 1875 ft 32 kts 178°
2026-05-04 09:01 -35.31958 149.19446 1878 ft 2 kts 332°
2026-05-04 09:02 -35.31943 149.19445 1876 ft 0 kts 356°
2026-05-04 09:04 -35.31942 149.19445 1876 ft 0 kts 356°
2026-05-04 09:04 -35.31817 149.19443 1876 ft 53 kts
2026-05-04 09:05 -35.31189 149.19443 1875 ft 126 kts 359°
2026-05-04 09:05 -35.30106 149.19444 1996 ft 181 kts
2026-05-04 09:05 -35.28739 149.19473 2792 ft 203 kts
2026-05-04 09:05 -35.27309 149.19603 4011 ft 212 kts
2026-05-04 09:06 -35.25823 149.19842 5107 ft 218 kts
2026-05-04 09:07 -35.15558 149.21982 9843 ft 195 kts 351°
2026-05-04 09:08 -35.14122 149.21835 10081 ft 219 kts 347°
2026-05-04 09:08 -35.12591 149.21489 10492 ft 230 kts 341°
2026-05-04 09:08 -35.11014 149.20909 10945 ft 243 kts 339°
2026-05-04 09:08 -35.09393 149.20189 11429 ft 252 kts 334°
2026-05-04 09:09 -35.07772 149.19262 11967 ft 262 kts 332°
2026-05-04 09:09 -35.06129 149.18280 12512 ft 271 kts 331°
2026-05-04 09:09 -35.04390 149.17224 13071 ft 280 kts 331°
2026-05-04 09:09 -35.02641 149.16155 13629 ft 289 kts 331°
2026-05-04 09:10 -35.00826 149.15055 14162 ft 292 kts 331°
2026-05-04 09:10 -34.99005 149.13951 14668 ft 292 kts 331°
2026-05-04 09:10 -34.97173 149.12845 15169 ft 294 kts 331°
2026-05-04 09:10 -34.95332 149.11730 15680 ft 297 kts 331°
2026-05-04 09:11 -34.93481 149.10609 16182 ft 298 kts 332°
2026-05-04 09:11 -34.91613 149.09490 16721 ft 300 kts 332°
2026-05-04 09:11 -34.89732 149.08358 17242 ft 304 kts 332°
2026-05-04 09:11 -34.87826 149.07212 17791 ft 306 kts 332°
2026-05-04 09:12 -34.85885 149.06111 18342 ft 310 kts 338°
2026-05-04 09:12 -34.83758 149.05548 18835 ft 316 kts 351°
2026-05-04 09:14 -34.67932 149.07938 22456 ft 337 kts
2026-05-04 09:14 -34.65631 149.08508 23025 ft 338 kts
2026-05-04 09:14 -34.63318 149.09081 23594 ft 339 kts
2026-05-04 09:14 -34.61010 149.09655 24079 ft 338 kts
2026-05-04 09:15 -34.58697 149.10227 24504 ft 340 kts
2026-05-04 09:15 -34.56371 149.10805 24886 ft 342 kts
2026-05-04 09:15 -34.54027 149.11388 25301 ft 345 kts
2026-05-04 09:15 -34.51668 149.11972 25709 ft 347 kts
2026-05-04 09:17 -34.32479 149.16721 28984 ft 357 kts
2026-05-04 09:18 -34.30037 149.17326 29301 ft 359 kts
2026-05-04 09:18 -34.27583 149.17930 29626 ft 361 kts
2026-05-04 09:18 -34.25111 149.18538 29966 ft 363 kts
2026-05-04 09:18 -34.22624 149.19152 30283 ft 366 kts
2026-05-04 09:19 -34.20129 149.19767 30572 ft 367 kts
2026-05-04 09:19 -34.17613 149.20387 30870 ft 369 kts
2026-05-04 09:19 -34.15092 149.21006 31165 ft 371 kts
2026-05-04 09:19 -34.12589 149.21622 31456 ft 372 kts
2026-05-04 09:20 -34.10018 149.22254 31767 ft 373 kts
2026-05-04 09:20 -34.07470 149.22880 32073 ft 374 kts
2026-05-04 09:20 -34.04954 149.23495 32341 ft 374 kts
2026-05-04 09:20 -34.02370 149.24129 32631 ft 375 kts
2026-05-04 09:21 -33.99849 149.24749 32921 ft 375 kts
2026-05-04 09:21 -33.97294 149.25371 33197 ft 375 kts
2026-05-04 09:21 -33.94737 149.25999 33490 ft 375 kts
2026-05-04 09:21 -33.92180 149.26624 33767 ft 375 kts
2026-05-04 09:22 -33.89623 149.27249 34053 ft 374 kts
2026-05-04 09:22 -33.87073 149.27872 34309 ft 374 kts
2026-05-04 09:22 -33.84526 149.28493 34550 ft 373 kts
2026-05-04 09:22 -33.81978 149.29117 34766 ft 372 kts
2026-05-04 09:23 -33.79440 149.29733 35015 ft 371 kts 360°
2026-05-04 09:23 -33.76912 149.30350 35278 ft 370 kts
2026-05-04 09:23 -33.74388 149.30965 35539 ft 369 kts
2026-05-04 09:23 -33.72724 149.31369 35703 ft 368 kts
2026-05-04 09:25 -33.55240 149.35613 36993 ft 370 kts 359°
2026-05-04 09:25 -33.52701 149.36228 37015 ft 374 kts 359°
2026-05-04 09:26 -33.47543 149.37478 37028 ft 383 kts 360°
2026-05-04 09:26 -33.42248 149.38759 37023 ft 393 kts 360°
2026-05-04 09:27 -33.36834 149.40065 37020 ft 401 kts 360°
2026-05-04 09:27 -33.31341 149.41392 37017 ft 410 kts 360°
2026-05-04 09:28 -33.25659 149.42760 37027 ft 418 kts
2026-05-04 09:28 -33.19900 149.44145 36991 ft 426 kts 359°
2026-05-04 09:29 -33.14088 149.45543 37029 ft 429 kts 360°
2026-05-04 09:29 -33.08263 149.46938 37001 ft 427 kts 359°
2026-05-04 09:30 -33.02441 149.48337 37023 ft 425 kts 359°
2026-05-04 09:30 -32.96617 149.49736 36980 ft 425 kts 359°
2026-05-04 09:31 -32.90811 149.51106 37012 ft 426 kts 359°
2026-05-04 09:31 -32.84987 149.52498 37009 ft 426 kts 359°
2026-05-04 09:32 -32.79173 149.53885 36982 ft 427 kts 359°
2026-05-04 09:34 -32.56045 149.60027 37017 ft 452 kts 12°
2026-05-04 09:34 -32.53237 149.61829 36994 ft 467 kts 20°
2026-05-04 09:34 -32.50560 149.64060 37023 ft 471 kts 22°
2026-05-04 09:35 -32.45197 149.68547 37015 ft 472 kts 22°
2026-05-04 09:35 -32.39852 149.73045 37009 ft 471 kts 22°
2026-05-04 09:37 -32.18454 149.90981 37013 ft 473 kts 22°
2026-05-04 09:38 -32.13082 149.95466 37013 ft 473 kts 22°
2026-05-04 09:38 -32.07708 149.99942 37012 ft 473 kts 21°
2026-05-04 09:39 -32.02338 150.04417 37027 ft 472 kts 21°
2026-05-04 09:39 -31.96970 150.08877 37019 ft 473 kts 22°
2026-05-04 09:40 -31.91599 150.13329 37012 ft 472 kts 21°
2026-05-04 09:40 -31.86234 150.17787 37038 ft 472 kts 21°
2026-05-04 09:42 -31.64662 150.35595 37019 ft 475 kts 21°
2026-05-04 09:43 -31.59250 150.40046 37035 ft 475 kts 21°
2026-05-04 09:43 -31.53828 150.44500 37027 ft 476 kts 21°
2026-05-04 09:44 -31.48387 150.48962 37039 ft 479 kts 21°
2026-05-04 09:46 -31.26576 150.66796 37051 ft 478 kts 21°
2026-05-04 09:46 -31.21128 150.71231 37051 ft 477 kts 21°
2026-05-04 09:47 -31.15685 150.75658 37001 ft 474 kts 21°
2026-05-04 09:49 -30.97396 150.92618 37052 ft 488 kts 29°
2026-05-04 09:49 -30.94872 150.95253 37047 ft 486 kts 28°
2026-05-04 09:51 -30.77211 151.13576 37032 ft 486 kts 29°
2026-05-04 09:51 -30.72162 151.18799 37070 ft 486 kts 29°
2026-05-04 09:52 -30.67111 151.24016 37057 ft 485 kts 29°
2026-05-04 09:52 -30.62062 151.29222 37070 ft 486 kts 29°
2026-05-04 09:53 -30.57005 151.34429 37033 ft 486 kts 29°
2026-05-04 09:53 -30.51927 151.39649 37074 ft 490 kts 29°
2026-05-04 09:54 -30.46817 151.44898 37063 ft 489 kts 29°
2026-05-04 09:54 -30.41726 151.50114 37087 ft 489 kts 29°
2026-05-04 09:55 -30.36628 151.55332 37048 ft 489 kts 29°
2026-05-04 09:55 -30.31553 151.60522 37084 ft 489 kts 29°
2026-05-04 09:56 -30.26439 151.65740 37087 ft 491 kts 29°
2026-05-04 09:56 -30.21314 151.70964 37094 ft 490 kts 29°
2026-05-04 09:57 -30.16229 151.76140 37093 ft 491 kts 29°
2026-05-04 09:57 -30.11105 151.81346 37099 ft 490 kts 29°
2026-05-04 09:58 -30.05984 151.86544 37097 ft 490 kts 29°
2026-05-04 09:58 -30.00853 151.91741 37089 ft 490 kts 29°
2026-05-04 10:00 -29.80309 152.12488 37104 ft 491 kts 29°
2026-05-04 10:04 -29.44261 152.48600 37060 ft 490 kts 29°
2026-05-04 10:04 -29.39100 152.53736 37088 ft 492 kts 30°
2026-05-04 10:05 -29.33946 152.58877 37039 ft 493 kts 30°
2026-05-04 10:05 -29.28751 152.64029 37083 ft 493 kts 30°
2026-05-04 10:06 -29.23576 152.69163 37068 ft 492 kts 29°
2026-05-04 10:06 -29.18394 152.74290 37075 ft 493 kts 29°
2026-05-04 10:08 -29.02832 152.89664 36905 ft 496 kts 30°
2026-05-04 10:08 -29.00231 152.92232 36626 ft 494 kts 29°
2026-05-04 10:08 -28.97623 152.94799 36355 ft 494 kts 30°
2026-05-04 10:08 -28.95018 152.97364 36090 ft 495 kts 30°
2026-05-04 10:09 -28.92405 152.99935 35789 ft 497 kts 30°
2026-05-04 10:09 -28.89764 153.02490 35352 ft 493 kts 26°
2026-05-04 10:09 -28.86962 153.04627 34961 ft 478 kts 17°
2026-05-04 10:09 -28.83984 153.06191 34578 ft 464 kts
2026-05-04 10:10 -28.81963 153.06894 34307 ft 455 kts
2026-05-04 10:10 -28.77843 153.07742 33665 ft 447 kts 356°
2026-05-04 10:10 -28.75807 153.08070 33333 ft 446 kts 356°
2026-05-04 10:10 -28.71685 153.08910 32762 ft 454 kts
2026-05-04 10:11 -28.69643 153.09410 32590 ft 454 kts
2026-05-04 10:11 -28.66542 153.10207 32308 ft 459 kts
2026-05-04 10:11 -28.63422 153.10993 32011 ft 460 kts
2026-05-04 10:11 -28.60306 153.11806 31723 ft 459 kts
2026-05-04 10:12 -28.57181 153.12617 31448 ft 460 kts
2026-05-04 10:12 -28.54064 153.13422 31173 ft 461 kts
2026-05-04 10:12 -28.50927 153.14231 30910 ft 462 kts
2026-05-04 10:12 -28.47785 153.15038 30638 ft 465 kts
2026-05-04 10:13 -28.44618 153.15843 30346 ft 467 kts
2026-05-04 10:13 -28.41467 153.16663 30011 ft 464 kts
2026-05-04 10:13 -28.38355 153.17466 29699 ft 465 kts
2026-05-04 10:13 -28.35201 153.18275 29387 ft 466 kts
2026-05-04 10:14 -28.32030 153.19085 29057 ft 468 kts
2026-05-04 10:14 -28.28855 153.19915 28687 ft 465 kts
2026-05-04 10:16 -28.08516 153.24164 24316 ft 377 kts
2026-05-04 10:16 -28.05910 153.24618 23681 ft 379 kts
2026-05-04 10:16 -28.03314 153.25064 22890 ft 376 kts
2026-05-04 10:16 -28.00743 153.25510 22186 ft 372 kts
2026-05-04 10:17 -27.98198 153.25949 21494 ft 369 kts
2026-05-04 10:17 -27.95668 153.26383 20811 ft 366 kts
2026-05-04 10:19 -27.78616 153.29333 16082 ft 332 kts
2026-05-04 10:19 -27.76364 153.29721 15395 ft 324 kts
2026-05-04 10:19 -27.74161 153.30099 14725 ft 316 kts
2026-05-04 10:19 -27.72007 153.30470 14073 ft 310 kts
2026-05-04 10:20 -27.69891 153.30835 13363 ft 305 kts
2026-05-04 10:20 -27.67807 153.31192 12650 ft 301 kts
2026-05-04 10:20 -27.65772 153.31520 12272 ft 286 kts
2026-05-04 10:20 -27.63864 153.31796 12034 ft 269 kts
2026-05-04 10:21 -27.62031 153.31918 11712 ft 260 kts
2026-05-04 10:21 -27.60233 153.32013 11428 ft 258 kts
2026-05-04 10:21 -27.58447 153.32099 11155 ft 256 kts
2026-05-04 10:21 -27.56671 153.32185 10890 ft 255 kts
2026-05-04 10:22 -27.53142 153.32354 10377 ft 253 kts
2026-05-04 10:22 -27.51384 153.32439 10119 ft 253 kts
2026-05-04 10:22 -27.49629 153.32524 9851 ft 252 kts
2026-05-04 10:23 -27.47903 153.32607 9578 ft 251 kts
2026-05-04 10:23 -27.46173 153.32690 9373 ft 247 kts
2026-05-04 10:25 -27.34750 153.34499 8834 ft 245 kts 32°
2026-05-04 10:25 -27.33381 153.35644 8542 ft 245 kts 38°
2026-05-04 10:25 -27.32071 153.36872 8164 ft 246 kts 39°
2026-05-04 10:25 -27.30763 153.38131 7802 ft 249 kts 40°
2026-05-04 10:26 -27.29451 153.39406 7445 ft 250 kts 40°
2026-05-04 10:26 -27.28141 153.40659 7101 ft 251 kts 39°
2026-05-04 10:26 -27.26665 153.41692 6745 ft 251 kts 23°
2026-05-04 10:26 -27.24995 153.42264 6387 ft 252 kts 12°
2026-05-04 10:27 -27.23256 153.42527 6017 ft 253 kts
2026-05-04 10:27 -27.21495 153.42561 5723 ft 251 kts 359°
2026-05-04 10:27 -27.19779 153.42394 5495 ft 246 kts 349°
2026-05-04 10:27 -27.18149 153.41840 5271 ft 244 kts 338°
2026-05-04 10:28 -27.16694 153.40906 5090 ft 238 kts 325°
2026-05-04 10:28 -27.15410 153.39776 4980 ft 230 kts 318°
2026-05-04 10:28 -27.14400 153.38443 4905 ft 221 kts 304°
2026-05-04 10:28 -27.13625 153.36983 4824 ft 215 kts 295°
2026-05-04 10:29 -27.13145 153.35394 4679 ft 213 kts 282°
2026-05-04 10:29 -27.12896 153.33795 4567 ft 202 kts 273°
2026-05-04 10:29 -27.12925 153.32243 4502 ft 199 kts 262°
2026-05-04 10:29 -27.13122 153.30704 4395 ft 199 kts 261°
2026-05-04 10:30 -27.13328 153.29171 4273 ft 199 kts 256°
2026-05-04 10:30 -27.13806 153.27718 4159 ft 198 kts 238°
2026-05-04 10:30 -27.14689 153.26567 4058 ft 193 kts 216°
2026-05-04 10:30 -27.15851 153.25812 4024 ft 193 kts 203°
2026-05-04 10:31 -27.17059 153.25154 3996 ft 192 kts 206°
2026-05-04 10:31 -27.18245 153.24442 3992 ft 193 kts 205°
2026-05-04 10:32 -27.25467 153.20315 2643 ft 187 kts 204°
2026-05-04 10:33 -27.26585 153.19675 2431 ft 176 kts 204°
2026-05-04 10:33 -27.27655 153.19064 2173 ft 169 kts 203°
2026-05-04 10:33 -27.28691 153.18468 1931 ft 165 kts 204°
2026-05-04 10:33 -27.29691 153.17894 1719 ft 162 kts 203°
2026-05-04 10:34 -27.30692 153.17320 1514 ft 161 kts 203°
2026-05-04 10:34 -27.31676 153.16755 1295 ft 155 kts 204°
2026-05-04 10:34 -27.32618 153.16215 1081 ft 149 kts 204°
2026-05-04 10:34 -27.33547 153.15682 906 ft 152 kts 204°
2026-05-04 10:35 -27.34472 153.15149 729 ft 145 kts 204°
2026-05-04 10:35 -27.35356 153.14644 518 ft 138 kts 206°
2026-05-04 10:35 -27.36192 153.14163 338 ft 137 kts 205°
2026-05-04 10:35 -27.37048 153.13673 174 ft 140 kts 206°
2026-05-04 10:36 -27.37913 153.13175 24 ft 135 kts 206°
2026-05-04 10:36 -27.38669 153.12744 20 ft 106 kts 208°
2026-05-04 10:36 -27.38966 153.12514 18 ft 33 kts 228°
2026-05-04 10:36 -27.39072 153.12340 22 ft 23 kts 237°
2026-05-04 10:37 -27.39131 153.12192 20 ft 19 kts 285°
2026-05-04 10:37 -27.39038 153.12164 20 ft 13 kts 26°
2026-05-04 10:37 -27.38955 153.12215 20 ft 14 kts 28°
2026-05-04 10:37 -27.38861 153.12269 21 ft 16 kts 25°
2026-05-04 10:39 -27.38292 153.12500 20 ft 11 kts 298°
2026-05-04 10:39 -27.38268 153.12419 20 ft 11 kts 266°
2026-05-04 10:39 -27.38280 153.12339 22 ft 9 kts 259°
2026-05-04 10:40 -27.38286 153.12301 20 ft 4 kts 259°
2026-05-04 10:40 -27.38289 153.12285 20 ft 1 kts 259°
2026-05-04 10:40 -27.38290 153.12281 20 ft 0 kts 259°